• In Hungary
  • List of Countries
  • For 7 days
  • Water Temperature
  • Satellite Maps
  • Weather Map
  • News
  • Weather Widgets
  • user-avatar
    Login

    Hourly Weather Zagorodnyy

    Today, 23 May, Wednesday

    Time Temperature Precipitation Wind Pressure Humidity
    00:00 +10°C° 0 mm 1 mps 748 mmHg 98%
    01:00 +10°C° 0 mm 1 mps 748 mmHg 98%
    02:00 +10°C° 0 mm 1 mps 748 mmHg 98%
    03:00 +10°C° 0 mm 1 mps 748 mmHg 98%
    04:00 +11°C° 0 mm 1 mps 748 mmHg 98%
    05:00 +11°C° 0 mm 1 mps 748 mmHg 97%
    06:00 +13°C° 0 mm 1 mps 749 mmHg 89%
    07:00 +15°C° 0 mm 2 mps 749 mmHg 81%
    08:00 +17°C° 0 mm 2 mps 749 mmHg 72%
    09:00 +18°C° 0 mm 2 mps 749 mmHg 66%
    10:00 +19°C° 0 mm 2 mps 749 mmHg 60%
    11:00 +20°C° 0 mm 2 mps 749 mmHg 53%
    12:00 +21°C° 0 mm 2 mps 749 mmHg 52%
    13:00 +21°C° 0 mm 2 mps 748 mmHg 50%
    14:00 +23°C° 0 mm 2 mps 748 mmHg 48%
    15:00 +22°C° 0 mm 1 mps 748 mmHg 50%
    16:00 +22°C° 0 mm 1 mps 747 mmHg 52%
    17:00 +22°C° 0 mm 1 mps 747 mmHg 54%
    18:00 +20°C° 0.1 mm 1 mps 747 mmHg 61%
    19:00 +16°C° 0.1 mm 0 mps 747 mmHg 68%
    20:00 +15°C° 0.1 mm 0 mps 747 mmHg 76%
    21:00 +15°C° 0.2 mm 1 mps 747 mmHg 79%
    22:00 +14°C° 0.2 mm 1 mps 747 mmHg 82%
    23:00 +14°C° 0.2 mm 1 mps 747 mmHg 85%

    Tomorrow, 24 May, Thursday

    Time Temperature Precipitation Wind Pressure Humidity
    00:00 +13°C° 0.6 mm 1 mps 747 mmHg 88%
    01:00 +13°C° 0.6 mm 1 mps 747 mmHg 90%
    02:00 +12°C° 0.6 mm 2 mps 747 mmHg 93%
    03:00 +12°C° 0.6 mm 2 mps 747 mmHg 93%
    04:00 +13°C° 0.6 mm 2 mps 747 mmHg 93%
    05:00 +13°C° 0.6 mm 2 mps 747 mmHg 93%
    06:00 +14°C° 0.4 mm 2 mps 747 mmHg 88%
    07:00 +16°C° 0.4 mm 2 mps 748 mmHg 83%
    08:00 +18°C° 0.4 mm 2 mps 748 mmHg 78%
    09:00 +19°C° 0.8 mm 2 mps 748 mmHg 74%
    10:00 +20°C° 0.8 mm 2 mps 748 mmHg 69%
    11:00 +21°C° 0.8 mm 3 mps 748 mmHg 65%
    12:00 +21°C° 0.5 mm 3 mps 748 mmHg 62%
    13:00 +22°C° 0.5 mm 3 mps 748 mmHg 59%
    14:00 +22°C° 0.5 mm 3 mps 747 mmHg 57%
    15:00 +23°C° 0.2 mm 2 mps 747 mmHg 59%
    16:00 +23°C° 0.2 mm 2 mps 747 mmHg 61%
    17:00 +21°C° 0.2 mm 2 mps 747 mmHg 63%
    18:00 +20°C° 0.1 mm 2 mps 748 mmHg 69%
    19:00 +18°C° 0.1 mm 2 mps 748 mmHg 74%
    20:00 +17°C° 0.1 mm 2 mps 748 mmHg 79%
    21:00 +16°C° 0 mm 2 mps 749 mmHg 84%
    22:00 +15°C° 0 mm 2 mps 749 mmHg 88%
    23:00 +14°C° 0 mm 2 mps 749 mmHg 93%

    Day after tomorrow, 25 May, Friday

    Time Temperature Precipitation Wind Pressure Humidity
    00:00 +12°C° 0 mm 3 mps 750 mmHg 91%
    01:00 +12°C° 0 mm 3 mps 750 mmHg 90%
    02:00 +11°C° 0 mm 3 mps 751 mmHg 89%
    03:00 +11°C° 0 mm 3 mps 751 mmHg 84%
    04:00 +11°C° 0 mm 3 mps 751 mmHg 79%
    05:00 +10°C° 0 mm 3 mps 752 mmHg 75%
    06:00 +12°C° 0 mm 3 mps 752 mmHg 66%
    07:00 +13°C° 0 mm 3 mps 752 mmHg 56%
    08:00 +15°C° 0 mm 4 mps 753 mmHg 47%
    09:00 +17°C° 0 mm 4 mps 753 mmHg 44%
    10:00 +18°C° 0 mm 3 mps 753 mmHg 42%
    11:00 +19°C° 0 mm 3 mps 753 mmHg 39%
    12:00 +19°C° 0 mm 3 mps 754 mmHg 38%
    13:00 +20°C° 0 mm 3 mps 754 mmHg 38%
    14:00 +20°C° 0 mm 3 mps 754 mmHg 38%
    15:00 +20°C° 0 mm 3 mps 754 mmHg 39%
    16:00 +20°C° 0 mm 3 mps 754 mmHg 41%
    17:00 +20°C° 0 mm 3 mps 754 mmHg 42%
    18:00 +18°C° 0 mm 2 mps 754 mmHg 50%
    19:00 +16°C° 0 mm 2 mps 754 mmHg 58%
    20:00 +14°C° 0 mm 2 mps 755 mmHg 66%
    21:00 +13°C° 0 mm 2 mps 755 mmHg 67%
    22:00 +12°C° 0 mm 2 mps 755 mmHg 68%
    23:00 +10°C° 0 mm 2 mps 756 mmHg 69%

    26 May, Saturday

    Time Temperature Precipitation Wind Pressure Humidity
    00:00 +10°C° 0 mm 1 mps 756 mmHg 69%
    01:00 +10°C° 0 mm 1 mps 757 mmHg 69%
    02:00 +9°C° 0 mm 1 mps 757 mmHg 69%
    03:00 +10°C° 0 mm 1 mps 757 mmHg 69%
    04:00 +10°C° 0 mm 1 mps 758 mmHg 69%
    05:00 +11°C° 0 mm 1 mps 758 mmHg 69%
    06:00 +13°C° 0 mm 1 mps 758 mmHg 62%
    07:00 +15°C° 0 mm 1 mps 758 mmHg 55%
    08:00 +17°C° 0 mm 2 mps 758 mmHg 48%
    09:00 +18°C° 0 mm 2 mps 758 mmHg 44%
    10:00 +20°C° 0 mm 2 mps 758 mmHg 40%
    11:00 +21°C° 0 mm 2 mps 758 mmHg 36%
    12:00 +23°C° 0 mm 2 mps 758 mmHg 36%
    13:00 +23°C° 0 mm 2 mps 758 mmHg 35%
    14:00 +24°C° 0 mm 2 mps 757 mmHg 35%
    15:00 +23°C° 0 mm 2 mps 757 mmHg 37%
    16:00 +23°C° 0 mm 2 mps 757 mmHg 40%
    17:00 +23°C° 0 mm 2 mps 756 mmHg 42%
    18:00 +20°C° 0 mm 2 mps 756 mmHg 50%
    19:00 +19°C° 0 mm 1 mps 756 mmHg 59%
    20:00 +16°C° 0 mm 1 mps 756 mmHg 67%
    21:00 +15°C° 0 mm 1 mps 756 mmHg 71%
    22:00 +14°C° 0 mm 1 mps 756 mmHg 74%
    23:00 +13°C° 0 mm 1 mps 756 mmHg 77%

    27 May, Sunday

    Time Temperature Precipitation Wind Pressure Humidity
    00:00 +12°C° 0 mm 1 mps 756 mmHg 79%
    01:00 +12°C° 0 mm 1 mps 756 mmHg 81%
    02:00 +11°C° 0 mm 1 mps 756 mmHg 84%
    03:00 +12°C° 0 mm 1 mps 756 mmHg 83%
    04:00 +12°C° 0 mm 1 mps 756 mmHg 82%
    05:00 +12°C° 0 mm 1 mps 756 mmHg 81%
    06:00 +14°C° 0 mm 2 mps 756 mmHg 72%
    07:00 +16°C° 0 mm 2 mps 756 mmHg 63%
    08:00 +19°C° 0 mm 3 mps 756 mmHg 54%
    09:00 +20°C° 0 mm 3 mps 756 mmHg 50%
    10:00 +21°C° 0 mm 3 mps 755 mmHg 46%
    11:00 +22°C° 0 mm 3 mps 755 mmHg 42%
    12:00 +22°C° 0 mm 4 mps 755 mmHg 42%
    13:00 +23°C° 0 mm 4 mps 754 mmHg 41%
    14:00 +23°C° 0 mm 4 mps 754 mmHg 41%
    15:00 +23°C° 0 mm 4 mps 753 mmHg 43%
    16:00 +23°C° 0 mm 4 mps 753 mmHg 45%
    17:00 +22°C° 0 mm 3 mps 753 mmHg 47%
    18:00 +20°C° 0 mm 3 mps 752 mmHg 55%
    19:00 +18°C° 0 mm 2 mps 752 mmHg 64%
    20:00 +16°C° 0 mm 2 mps 752 mmHg 73%
    21:00 +15°C° 0 mm 2 mps 752 mmHg 76%
    22:00 +15°C° 0 mm 2 mps 752 mmHg 78%
    23:00 +14°C° 0 mm 2 mps 752 mmHg 81%

    28 May, Monday

    Time Temperature Precipitation Wind Pressure Humidity
    00:00 +13°C° 0 mm 2 mps 752 mmHg 82%
    01:00 +13°C° 0 mm 2 mps 752 mmHg 83%
    02:00 +13°C° 0 mm 2 mps 752 mmHg 85%
    03:00 +13°C° 0 mm 2 mps 752 mmHg 83%
    04:00 +14°C° 0 mm 2 mps 752 mmHg 82%
    05:00 +14°C° 0 mm 2 mps 752 mmHg 81%
    06:00 +16°C° 0 mm 2 mps 752 mmHg 74%
    07:00 +18°C° 0 mm 2 mps 752 mmHg 66%
    08:00 +20°C° 0 mm 3 mps 751 mmHg 59%
    09:00 +21°C° 0 mm 3 mps 751 mmHg 53%
    10:00 +24°C° 0 mm 3 mps 751 mmHg 47%
    11:00 +25°C° 0 mm 4 mps 751 mmHg 40%
    12:00 +26°C° 0 mm 4 mps 751 mmHg 39%
    13:00 +26°C° 0 mm 4 mps 750 mmHg 39%
    14:00 +26°C° 0 mm 4 mps 750 mmHg 38%
    15:00 +26°C° 0 mm 4 mps 750 mmHg 40%
    16:00 +25°C° 0 mm 4 mps 749 mmHg 43%
    17:00 +23°C° 0 mm 4 mps 749 mmHg 45%
    18:00 +21°C° 0 mm 3 mps 749 mmHg 52%
    19:00 +19°C° 0 mm 3 mps 749 mmHg 58%
    20:00 +17°C° 0 mm 2 mps 749 mmHg 65%
    21:00 +16°C° 0 mm 2 mps 750 mmHg 67%
    22:00 +15°C° 0 mm 2 mps 750 mmHg 69%
    23:00 +14°C° 0 mm 2 mps 750 mmHg 71%
    Show more